Hourly Data Report for September 06, 2017

All times are specified in Local Standard Time (LST). Add 1 hour to adjust for Daylight Saving Time where and when it is observed.

MISCOU ISLAND (AUT)
NEW BRUNSWICK

48°00'32.002" N
64°29'39.008" W
4.00 m
8103050
71719
WMI

Download Data

Hourly Data (September 2017)
Hourly Data Report for September 6, 2017
Temp Definition
°C
Dew Point Temp Definition
°C
Rel Hum Definition
%
Wind Dir Definition
10's deg

Wind Spd Definition
km/h
Visibility Definition
km
Stn Press Definition
kPa
Hmdx Definition


Wind Chill Definition


Weather Definition


TIME
00:00 17.7 16.1 91 20 12   100.89     LegendNANA
01:00 16.2 15.0 93 26 10   101.00     LegendNANA
02:00 16.0 15.0 94 24 2   100.92     LegendNANA
03:00 16.2 15.3 94 17 7   100.99     LegendNANA
04:00 15.8 14.9 94 10 6   100.94     LegendNANA
05:00 16.0 15.1 95 17 5   101.04     LegendNANA
06:00 16.1 15.3 95 31 4   101.12     LegendNANA
07:00 16.0 15.2 95 28 5   101.24     LegendNANA
08:00 16.3 15.5 96 8 4   101.22     LegendNANA
09:00 16.7 16.0 95 15 4   101.32     LegendNANA
10:00 17.5 16.6 95 15 11   101.37     LegendNANA
11:00 16.7 15.4 92 31 10   101.44     LegendNANA
12:00 16.5 15.4 93 5 3   101.46     LegendNANA
13:00 16.4 15.4 94 6 4   101.44     LegendNANA
14:00 16.5 15.5 94 6 3   101.48     LegendNANA
15:00 16.2 15.4 95 2 8   101.45     LegendNANA
16:00 16.0 15.2 95 3 6   101.45     LegendNANA
17:00 15.9 15.2 96 36 9   101.45     LegendNANA
18:00 15.7 15.0 96 36 9   101.48     LegendNANA
19:00 15.5 14.9 96 8 9   101.50     LegendNANA
20:00 15.5 14.9 96 7 20   101.40     LegendNANA
21:00 15.6 15.0 96 6 10   101.42     LegendNANA
22:00 15.6 15.0 96 33 12   101.42     LegendNANA
23:00 15.5 14.9 96 4 7   101.40     LegendNANA

Notes on Data Quality.

Legend

  • E = Estimated
  • M = Missing
  • NA = Not Available
  • ‡ = Partner data that is not subject to review by the National Climate Archives
Date modified: